Regional Weather Roundup
Issued by NWS

Home | Current Version | Previous Version | Text Only | Print | Product List | Glossary On
Versions: 1 2 3 4 5 6 7 8 9 10 11 12 13 14 15 16 17 18 19 20 21 22 23 24 25 26 27 28 29 30 31 32 33 34 35 36 37 38 39 40 41 42 43 44 45 46 47 48 49 50
000
ASUS43 KMKX 030700
RWRWI

WISCONSIN REGIONAL WEATHER ROUNDUP
NATIONAL WEATHER SERVICE MILWAUKEE/SULLIVAN WI
200 AM CDT THU SEP 03 2015

NOTE: "FAIR" INDICATES FEW OR NO CLOUDS BELOW 12,000 FEET WITH NO
SIGNIFICANT WEATHER AND/OR OBSTRUCTIONS TO VISIBILITY.

WIZ001-002-006>008-014>016-023>028-030800-
NORTHWEST WISCONSIN

CITY           SKY/WX    TMP DP  RH WIND       PRES   REMARKS
SUPERIOR ARPT  FOG       59  59  99 CALM      29.97S VSB 1/2
ASHLAND        FOG       62  62 100 CALM      29.97S VSB 1/4
HAYWARD        FOG       60  59  96 NE7       29.96S VSB 3/4
SIREN          CLEAR     64  64  97 CALM      29.95S
CUMBERLAND     CLOUDY    64  63  94 CALM      29.95S
RICE LAKE      CLOUDY    66  64  96 CALM      29.96S FOG
CHETEK         MOCLDY   N/A N/A N/A MISG      29.94F FOG
LADYSMITH      MOCLDY    66  64  94 CALM      29.97S
EAU CLAIRE     NOT AVBL
MENOMONIE      CLEAR     67  66  98 CALM      29.92F FOG
NEW RICHMOND   CLEAR     66  66  99 E3        29.93F
OSCEOLA        CLEAR     67  67 100 CALM      29.95F
$$

WIZ003>005-009-010-017-018-030800-
NORTH CENTRAL WISCONSIN

CITY           SKY/WX    TMP DP  RH WIND       PRES   REMARKS
MANITOWISH WTR FOG       60  60 100 CALM      29.98F VSB 3/4
ARBOR VITAE    CLOUDY    64  63  96 CALM      29.98S
WOODRUFF       CLOUDY    64  63  96 CALM      29.98S
RHINELANDER    CLOUDY    65  63  93 E5        29.98S
EAGLE RIVER    CLOUDY    65  64  99 NE6       29.97S
LAND O LAKES   CLOUDY    65  64  97 CALM      29.99F
PHILLIPS       MOCLDY    62  62 100 CALM      29.96S FOG
TOMAHAWK       PTCLDY    63  62  96 CALM      29.97S
MEDFORD        CLOUDY    66  66 100 NE5       29.95S FOG
MERRILL        PTCLDY    67  67 100 E3        29.95F
$$

WIZ029-030-035-036-043>047-030800-
CENTRAL WISCONSIN

CITY           SKY/WX    TMP DP  RH WIND       PRES   REMARKS
WAUSAU         CLOUDY    69  67  93 CALM      29.92F
MOSINEE        CLOUDY    66  66 100 NE6       29.95S
MARSHFIELD     CLOUDY    70  66  87 NE5       29.93S
STEVENS POINT  CLOUDY    67  67  98 N3        29.93S FOG
WAUPACA        MOCLDY    73  73  97 SW6       29.90S
WAUTOMA        NOT AVBL
WISC RAPIDS    CLOUDY    73  69  87 N7        29.93S
CAMP DOUGLAS   NOT AVBL
$$

WIZ011>013-019>022-031-037>040-048>050-030800-
NORTHEAST WISCONSIN

CITY           SKY/WX    TMP DP  RH WIND       PRES   REMARKS
ANTIGO         CLOUDY    66  65  99 CALM      29.95S
SHAWANO        NOT AVBL
OCONTO         CLOUDY    66  66 100 E6        29.90F
STURGEON BAY   CLOUDY    66  63  88 CALM      29.92F
GREEN BAY      LGT RAIN  69  68  96 E3        29.89F FOG
MANITOWOC      NOT AVBL
APPLETON       MOCLDY    72  66  83 SW6       29.89F THUNDER
CLINTONVILLE   HVY RAIN  68  68 100 CALM      29.91F
OSHKOSH        PTCLDY    72  68  87 SW8       29.89F
$$

WIZ032>034-041-042-053>061-030800-
SOUTHWEST WISCONSIN

CITY           SKY/WX    TMP DP  RH WIND       PRES   REMARKS
LA CROSSE      CLEAR     75  69  81 S7        29.89F
SPARTA         CLEAR     67  65  93 CALM      29.91F
VIROQUA          N/A     71  70  98 SW6       29.94F
BOSCOBEL       CLOUDY    76  70  82 SW5       29.91F
PRAIRIE DU CHI CLOUDY    73  67  81 CALM      29.92F
PLATTEVILLE    CLOUDY    73  70  92 S6        29.95F
$$

WIZ056-057-062-063-064-067-068-030800-
SOUTH CENTRAL WISCONSIN

CITY           SKY/WX    TMP DP  RH WIND       PRES   REMARKS
REEDSBURG      CLEAR     74  69  82 SW8       29.91F
BARABOO/DELLS  CLEAR     73  66  79 SW9       29.92F
LONE ROCK      NOT AVBL
MINERAL POINT  CLEAR     73  70  88 SW6       29.95F
MADISON        CLEAR     74  69  85 S3        29.92F
MIDDLETON      CLEAR     76  67  74 SW9       29.93F
WATERTOWN      CLEAR     72  72 100 S3        29.92F
MONROE         CLOUDY    73  68  83 SW12      29.95F
JANESVILLE     MOCLDY    73  70  88 CALM      29.94F
$$

WIZ051-052-058>065-066-070>072-030800-
SOUTHEAST WISCONSIN

CITY           SKY/WX    TMP DP  RH WIND       PRES   REMARKS
MILWAUKEE      PTCLDY    76  69  79 S10       29.92F
WAUKESHA       MOCLDY    73  68  83 SW5       29.95S
MILWAUKEE/TIMM PTCLDY    73  68  83 S5        29.93F
RACINE         MOCLDY    73  67  81 SW5       29.95F
BURLINGTON     MOCLDY    70  68  94 SW5       29.94F
KENOSHA        MOCLDY    74  69  85 S6        29.94F
FOND DU LAC    MOCLDY    73  69  87 SW7       29.91S
SHEBOYGAN      CLOUDY    73  70  90 S3        29.92S
WEST BEND      PTCLDY    70  66  88 CALM      29.92F
JUNEAU         PTCLDY    71  68  92 SW6       29.93F
$$

LSZ147-162-030800-
LAKE SUPERIOR

STATION/POSITION TIME  TEMP    WIND        PRES    WAVE
                       AIR SEA DIR/SP/G            HT/PER
                 (UTC) (F)     (DEG/KT/KT) (MB)    (FT/S)
W MID LAKE BUOY  0550   57 56   50/  6/  6 1014.9R   0
DEVILS ISLAND    0600   58     360/  6/  7 1015.2S
PORT WING        0600   59      40/  6/  8 1015.2S
SAXON HARBOR     0600   60        CALM     1014.2S
$$

LMZ867-665-643>646-030800-
LAKE MICHIGAN

STATION/POSITION TIME  TEMP    WIND        PRES    WAVE
                       AIR SEA DIR/SP/G            HT/PER
                 (UTC) (F)     (DEG/KT/KT) (MB)    (FT/S)
CHAMBERS ISLAND  0600   65      50/  5/  9 1013.5F
S GREEN BAY BUOY 0600   66 66   30/  8/ 10 1014.5S
N MID LAKE BUOY  0550   68 66  320/ 10/ 12 1013.2F   1
NORTHPORT PIER   0600   67      CALM  /  3 1013.5F
SISTER BAY       0541   69     120/  8/ 11   N/A
ALGOMA LAKESHORE 0514          220/  6/  8   N/A
KEWAUNEE LAKESHO 0600   54     160/  3/  6 1011.9F
SHEBOYGAN LAKESH 0600   70     180/ 16/ 17 1013.0F
PORT WASHINGTON  0600   65     190/  7/ 10 1014.2S
ATWATER BUOY     0600   62     170/  8/  8 1015.1F
MILWAUKEE LAKESH 0610   68     150/  2/  2   N/A
S MID LAKE BUOY  0550   74 71  220/  8/ 10 1014.0R   0
KENOSHA   LAKESH 0600   65     180/  5/  5 1013.9F
$$

TC  - TEMPERATURE IN CELSIUS
VSB - VISIBILITY IN STATUTE MILES
WCI - WIND CHILL INDEX
HX  - HEAT INDEX




USA.gov is the U.S. government's official web portal to all federal, state and local government web resources and services.